[[{"header":{"parameterUnit":"m.s-1","parameterCategory":1,"la1":30.2991,"la2":30.254,"lo1":-89.0895,"lo2":-89.0444,"dy":0.0017,"dx":0.0017,"nx":28,"ny":28,"refTime":"2025-03-07T09:00:00:Z","depth":0,"parameterNumber":2,"parameterNumberName":"U-component_of_WINDS"},"data":[0,0,0,0,0,0,0,0,0,0,0,0,0,0,0,0,0,0,0,0,0,0,0,0,0,0,0,0,0,0,0,0,0,0,0,0,0,0,0,0,0,0,0,0,0,0,0,0,0,0,0,0,0,0,0,0,0,0,-0.5726,-0.5726,0,-0.5745,-0.5746,-0.5746,-0.5756,-0.5757,-0.5757,-0.5757,-0.5779,-0.5779,-0.578,0,0,0,0,0,0,0,0,0,0,0,0,0,-0.5697,-0.5698,-0.5725,-0.5726,-0.5726,-0.5745,-0.5746,-0.5746,-0.5756,-0.5757,-0.5757,-0.5757,-0.5779,-0.5779,-0.578,0,0,0,0,0,0,0,0,0,0,0,0,0,-0.5712,-0.5698,-0.5725,-0.5734,-0.5734,-0.5745,-0.5746,-0.5746,-0.5756,-0.5757,-0.5757,-0.5757,-0.5778,-0.5779,-0.578,-0.5785,0,0,-0.5783,-0.5783,0,0,0,0,0,0,0,0,-0.5712,-0.5714,-0.5732,-0.5733,-0.5734,-0.5748,-0.5744,-0.5759,-0.5756,-0.5748,-0.5757,-0.5757,-0.5769,-0.577,-0.5774,-0.5786,-0.5787,-0.5783,-0.5783,-0.5784,-0.5784,0,0,0,0,0,0,0,-0.571,-0.5713,-0.5733,-0.5732,-0.5734,-0.5736,-0.5739,-0.5747,-0.5758,-0.5749,-0.575,-0.5752,-0.5769,-0.5773,-0.5775,-0.5787,-0.5783,-0.5784,-0.5784,-0.5784,-0.5802,-0.5802,0,0,0,0,0,0,-0.5708,-0.5712,-0.5733,-0.5734,-0.5723,-0.5737,-0.5739,-0.5744,-0.5758,-0.576,-0.5752,-0.5752,-0.5772,-0.5774,-0.5776,-0.5781,-0.5784,-0.5784,-0.5785,-0.5802,-0.5802,-0.5802,0,0,0,0,0,0,-0.5707,-0.571,-0.5732,-0.5723,-0.5726,-0.5737,-0.5742,-0.5744,-0.5748,-0.576,-0.5762,-0.5754,-0.5772,-0.5774,-0.5782,-0.5782,-0.5785,-0.5786,-0.5802,-0.5802,-0.5802,-0.5792,0,0,0,0,0,0,-0.5706,-0.5709,-0.5712,-0.5723,-0.5727,-0.5738,-0.5742,-0.5745,-0.5749,-0.575,-0.5763,-0.5765,-0.5772,-0.5781,-0.5783,-0.5783,-0.5786,-0.5802,-0.5802,-0.5802,-0.5793,-0.5792,-0.5791,0,0,0,0,0,-0.5705,-0.5709,-0.5712,-0.5714,-0.5729,-0.5738,-0.574,-0.5748,-0.5749,-0.5751,-0.5759,-0.5764,-0.5781,-0.5781,-0.5784,-0.5784,-0.5802,-0.5802,-0.5802,-0.5793,-0.5792,-0.5791,0,0,0,0,0,0,-0.5698,-0.5711,-0.5714,-0.5721,-0.5728,-0.574,-0.5743,-0.5747,-0.5754,-0.5755,-0.5765,-0.5768,-0.5774,-0.578,-0.578,-0.5789,-0.5792,-0.5793,-0.5785,-0.5784,-0.5783,-0.5781,-0.5787,0,0,0,0,0,-0.5697,-0.5703,-0.5714,-0.5719,-0.5722,-0.5732,-0.5736,-0.5741,-0.5749,-0.5753,-0.5761,-0.5769,-0.5776,-0.578,-0.5787,-0.5794,-0.5796,-0.5795,-0.5794,-0.5794,-0.5794,-0.5796,-0.5795,-0.5802,-0.5802,-0.5802,0,0,-0.5696,-0.5703,-0.5707,-0.5718,-0.5724,-0.5729,-0.5734,-0.5741,-0.5744,-0.5754,-0.5761,-0.5767,-0.5776,-0.5782,-0.5786,-0.5788,-0.5792,-0.5793,-0.5793,-0.5793,-0.5795,-0.5795,-0.5794,-0.5801,-0.5801,-0.5801,0,0,-0.5696,-0.5703,-0.5707,-0.5712,-0.5721,-0.5727,-0.5728,-0.5738,-0.5742,-0.5749,-0.5755,-0.5761,-0.5773,-0.5779,-0.5783,-0.5783,-0.5788,-0.5785,-0.5781,-0.5783,-0.5783,-0.5782,-0.5781,-0.578,-0.5785,-0.5785,-0.5785,0,-0.5693,-0.5701,-0.5709,-0.5714,-0.5718,-0.5725,-0.5729,-0.5734,-0.5745,-0.5748,-0.575,-0.5764,-0.5771,-0.5778,-0.5777,-0.5781,-0.5782,-0.5784,-0.5782,-0.5782,-0.5781,-0.578,-0.578,-0.5785,-0.5785,-0.5785,-0.5785,0,-0.5697,-0.5702,-0.5705,-0.5713,-0.5718,-0.5723,-0.573,-0.5734,-0.5738,-0.5744,-0.575,-0.5758,-0.5766,-0.5769,-0.5774,-0.5776,-0.5776,-0.578,-0.5784,-0.578,-0.5779,-0.5779,-0.5784,-0.5784,-0.5784,-0.5785,0,0,-0.5695,-0.5705,-0.5706,-0.5709,-0.5718,-0.5723,-0.5727,-0.5734,-0.5736,-0.5743,-0.5746,-0.5756,-0.5758,-0.5763,-0.5769,-0.5771,-0.5768,-0.5774,-0.5774,-0.5772,-0.5769,-0.5765,-0.5765,-0.5771,-0.5771,-0.5771,-0.5768,0,-0.5695,-0.5702,-0.5708,-0.5713,-0.5717,-0.5723,-0.5727,-0.5733,-0.5737,-0.5742,-0.5747,-0.5753,-0.5757,-0.576,-0.5762,-0.5768,-0.5767,-0.5768,-0.5774,-0.5774,-0.5771,-0.5765,-0.5762,-0.5758,-0.5768,-0.5767,-0.5767,0,-0.5697,-0.5702,-0.5707,-0.5714,-0.5716,-0.5719,-0.5724,-0.5729,-0.5735,-0.5738,-0.5743,-0.5748,-0.5752,-0.5755,-0.576,-0.5761,-0.5763,-0.5766,-0.5766,-0.5767,-0.577,-0.5764,-0.5757,-0.5756,-0.5767,-0.5767,-0.5767,0,-0.5693,-0.5701,-0.5705,-0.5707,-0.5716,-0.5717,-0.5721,-0.5727,-0.573,-0.5735,-0.5737,-0.5743,-0.5746,-0.575,-0.5757,-0.5758,-0.5761,-0.5765,-0.5763,-0.5763,-0.5763,-0.5763,-0.5756,-0.5766,-0.5766,-0.5766,-0.5766,0,-0.5693,-0.5696,-0.5703,-0.5705,-0.5707,-0.5714,-0.5716,-0.572,-0.5725,-0.5728,-0.5734,-0.5737,-0.5745,-0.5749,-0.5754,-0.5756,-0.5758,-0.5761,-0.5762,-0.576,-0.5759,-0.5761,-0.5761,-0.5766,-0.5766,-0.5766,-0.5766,0,-0.5689,-0.5694,-0.5698,-0.5704,-0.5706,-0.5708,-0.5713,-0.5715,-0.572,-0.5723,-0.5724,-0.5731,-0.5736,-0.5742,-0.5749,-0.5752,-0.5753,-0.5756,-0.5751,-0.5752,-0.5749,-0.5749,-0.5743,-0.5742,-0.5753,-0.5753,-0.5753,0,-0.5688,-0.569,-0.5696,-0.5698,-0.5701,-0.5704,-0.5706,-0.5712,-0.5714,-0.572,-0.5721,-0.5726,-0.5729,-0.5736,-0.5741,-0.5746,-0.5748,-0.5745,-0.5749,-0.5746,-0.5747,-0.5746,-0.5746,-0.5745,-0.5745,-0.5744,-0.5744,0,-0.5686,-0.5688,-0.5691,-0.5694,-0.5696,-0.57,-0.5703,-0.5705,-0.5711,-0.5713,-0.5717,-0.5719,-0.5725,-0.5729,-0.5734,-0.5737,-0.5742,-0.5743,-0.5743,-0.574,-0.5737,-0.5737,-0.5748,-0.5743,-0.5743,-0.5743,-0.5743,-0.5744,-0.5683,-0.5684,-0.5688,-0.5691,-0.5693,-0.5696,-0.5698,-0.5701,-0.5704,-0.5708,-0.5711,-0.5714,-0.5719,-0.5726,-0.5729,-0.5731,-0.5733,-0.5733,-0.5733,-0.5732,-0.5731,-0.5737,-0.5732,-0.5732,-0.5732,-0.5732,-0.5732,0,-0.568,-0.5682,-0.5685,-0.5688,-0.569,-0.5693,-0.5696,-0.5698,-0.57,-0.5703,-0.5706,-0.5709,-0.5712,-0.5717,-0.5721,-0.5721,-0.5723,-0.5722,-0.5722,-0.5722,-0.573,-0.5729,-0.572,-0.572,-0.572,-0.572,-0.572,-0.572,-0.5679,-0.568,-0.5682,-0.5684,-0.5687,-0.5689,-0.569,-0.5692,-0.5695,-0.5698,-0.57,-0.5703,-0.5706,-0.571,-0.5712,-0.5714,-0.5714,-0.5712,-0.5714,-0.5721,-0.5722,-0.5723,-0.5723,-0.5713,-0.5713,-0.5707,-0.5707,-0.5707]},{"header":{"parameterUnit":"m.s-1","parameterCategory":1,"la1":30.2991,"la2":30.254,"lo1":-89.0895,"lo2":-89.0444,"dy":0.0017,"dx":0.0017,"nx":28,"ny":28,"refTime":"2025-03-07T09:00:00:Z","depth":0,"parameterNumber":3,"parameterNumberName":"V-component_of_WINDS"},"data":[0,0,0,0,0,0,0,0,0,0,0,0,0,0,0,0,0,0,0,0,0,0,0,0,0,0,0,0,0,0,0,0,0,0,0,0,0,0,0,0,0,0,0,0,0,0,0,0,0,0,0,0,0,0,0,0,0,0,0.1949,0.1952,0,0.2183,0.2186,0.2189,0.2265,0.2264,0.2263,0.2262,0.2505,0.2512,0.2519,0,0,0,0,0,0,0,0,0,0,0,0,0,0.1574,0.158,0.1949,0.1952,0.1955,0.2183,0.2186,0.2189,0.2265,0.2264,0.2263,0.2262,0.2503,0.2511,0.252,0,0,0,0,0,0,0,0,0,0,0,0,0,0.1765,0.1582,0.1948,0.202,0.2029,0.2182,0.2186,0.219,0.2266,0.2264,0.2263,0.2261,0.25,0.251,0.2521,0.2621,0,0,0.2555,0.256,0,0,0,0,0,0,0,0,0.1754,0.1779,0.2007,0.2016,0.2026,0.2193,0.2143,0.2335,0.2266,0.2176,0.2262,0.226,0.2403,0.2422,0.2469,0.2632,0.2643,0.2556,0.2563,0.2568,0.2571,0,0,0,0,0,0,0,0.1741,0.1769,0.2042,0.201,0.2022,0.2043,0.2068,0.218,0.2295,0.2184,0.219,0.2216,0.2408,0.2458,0.2475,0.2646,0.2556,0.2566,0.2573,0.2577,0.2909,0.2911,0,0,0,0,0,0,0.1715,0.1758,0.2034,0.2049,0.1883,0.2051,0.2079,0.2141,0.2294,0.2316,0.2217,0.2219,0.244,0.2462,0.2484,0.2615,0.2568,0.2578,0.2585,0.2907,0.2909,0.2912,0,0,0,0,0,0,0.1706,0.1739,0.2025,0.1905,0.1943,0.2059,0.2128,0.2147,0.2197,0.232,0.2341,0.2247,0.244,0.2469,0.2588,0.2625,0.2583,0.2593,0.2904,0.2908,0.2911,0.2875,0,0,0,0,0,0,0.1695,0.1735,0.1773,0.1905,0.1949,0.2123,0.213,0.2152,0.2216,0.222,0.2354,0.2374,0.2441,0.2571,0.2599,0.2639,0.2602,0.2902,0.2906,0.291,0.2874,0.2877,0.288,0,0,0,0,0,0.1682,0.1753,0.1774,0.1807,0.1998,0.2124,0.215,0.2224,0.2218,0.2259,0.2338,0.237,0.2615,0.2582,0.2614,0.2659,0.29,0.2905,0.2909,0.2872,0.2876,0.2879,0,0,0,0,0,0,0.1622,0.1772,0.1797,0.1913,0.2005,0.2137,0.219,0.2225,0.2321,0.2322,0.241,0.244,0.2553,0.2617,0.2578,0.2766,0.2759,0.2771,0.272,0.2725,0.2728,0.2712,0.2611,0,0,0,0,0,0.1622,0.1711,0.1837,0.1927,0.1973,0.2073,0.213,0.218,0.228,0.2319,0.2407,0.2504,0.2604,0.2667,0.2765,0.2882,0.2915,0.2929,0.2932,0.2934,0.2944,0.3016,0.3025,0.2928,0.2928,0.2927,0,0,0.1624,0.1717,0.1767,0.1918,0.1995,0.2088,0.2105,0.2201,0.2271,0.2334,0.2453,0.2521,0.2635,0.2755,0.2812,0.2812,0.2978,0.294,0.2941,0.295,0.3022,0.3031,0.3039,0.2931,0.293,0.293,0,0,0.1675,0.1752,0.1838,0.1916,0.2033,0.21,0.212,0.2248,0.2296,0.2416,0.2467,0.2552,0.272,0.2801,0.2864,0.2949,0.2984,0.2978,0.2994,0.3064,0.3071,0.3079,0.3114,0.3125,0.2987,0.2986,0.2986,0,0.1663,0.1803,0.1878,0.1973,0.204,0.21,0.2191,0.2262,0.2406,0.2451,0.2449,0.2664,0.2745,0.2887,0.2908,0.2955,0.2985,0.2964,0.3064,0.3072,0.308,0.3115,0.3127,0.2985,0.2986,0.2986,0.2986,0,0.1785,0.1881,0.1936,0.2074,0.2147,0.2238,0.233,0.2395,0.2438,0.2506,0.263,0.2729,0.285,0.2887,0.2929,0.3037,0.3034,0.3046,0.3042,0.3087,0.3121,0.3135,0.2984,0.2984,0.2985,0.2985,0,0,0.1805,0.1985,0.2005,0.207,0.2205,0.2282,0.2377,0.2496,0.2552,0.2649,0.2734,0.2876,0.289,0.2961,0.3014,0.3074,0.3141,0.308,0.3084,0.3092,0.3271,0.3264,0.3277,0.3163,0.3166,0.3168,0.3263,0,0.1877,0.205,0.2122,0.2263,0.2355,0.2416,0.25,0.2593,0.2659,0.2749,0.2823,0.2924,0.2932,0.2976,0.3038,0.3119,0.3179,0.3113,0.3248,0.3251,0.3221,0.3294,0.3287,0.3371,0.3276,0.3278,0.328,0,0.1984,0.2083,0.2233,0.2361,0.2402,0.2476,0.2593,0.2676,0.2785,0.2829,0.291,0.2961,0.3067,0.3053,0.3203,0.3156,0.3216,0.3264,0.3269,0.3288,0.3271,0.3319,0.3399,0.3413,0.3301,0.3299,0.3298,0,0.199,0.216,0.2273,0.2327,0.2477,0.2529,0.2594,0.2701,0.2769,0.2871,0.2917,0.3029,0.3092,0.3179,0.326,0.3241,0.3404,0.3395,0.3447,0.3446,0.3482,0.3479,0.3576,0.3512,0.3512,0.3511,0.3511,0,0.2065,0.2156,0.2279,0.2348,0.2453,0.2536,0.2638,0.2707,0.2802,0.2889,0.2947,0.3028,0.3127,0.3221,0.3284,0.3402,0.3428,0.347,0.3487,0.3468,0.3463,0.351,0.3508,0.3515,0.3514,0.3514,0.3513,0,0.209,0.2176,0.2304,0.2436,0.2472,0.2544,0.2658,0.273,0.2799,0.2909,0.2939,0.3049,0.3163,0.3251,0.3399,0.3442,0.3568,0.3583,0.3531,0.3541,0.359,0.3586,0.3724,0.3749,0.3663,0.3664,0.3664,0,0.2134,0.2206,0.2347,0.2409,0.2474,0.2572,0.2643,0.2728,0.2799,0.293,0.2987,0.3105,0.3205,0.3385,0.3479,0.3594,0.3615,0.3656,0.3633,0.3613,0.3622,0.3619,0.3629,0.366,0.366,0.3661,0.3661,0,0.2206,0.2245,0.2343,0.2458,0.254,0.2634,0.273,0.2778,0.2881,0.2958,0.3076,0.3153,0.3305,0.3424,0.3548,0.3618,0.3659,0.3667,0.3686,0.367,0.3639,0.3662,0.3544,0.3665,0.3664,0.3664,0.3664,0.3664,0.2245,0.2314,0.2424,0.2533,0.2614,0.2703,0.2778,0.2858,0.2957,0.3088,0.3132,0.3255,0.3365,0.3537,0.3608,0.3707,0.3709,0.3735,0.3743,0.3749,0.375,0.3619,0.373,0.373,0.373,0.373,0.373,0,0.2324,0.2398,0.2497,0.263,0.2717,0.2745,0.2854,0.2925,0.3032,0.3131,0.3229,0.3366,0.3482,0.3586,0.3707,0.3767,0.3789,0.3796,0.3795,0.3812,0.3739,0.3713,0.3777,0.3777,0.3777,0.3777,0.3777,0.3777,0.2375,0.2493,0.2546,0.2707,0.2782,0.2902,0.2962,0.3046,0.3126,0.3277,0.3374,0.344,0.3543,0.3673,0.3782,0.381,0.3854,0.3858,0.3891,0.3822,0.3816,0.3811,0.3787,0.3865,0.3866,0.3957,0.3957,0.3958]}]]